Погода Пономарёво

Погода Пономарёво : погода сейчас, прогноз погоды и архив. Всё, что Вы хотите узнать о погоде Пономарёво!

Поиск расширенной информации на нашем сайте:

Другие новости

Новости СМИ2

Главная страница сайта

Новости сайта

03.07.2017

Напоминаем, что на нашем специализированном сайте Метеоцентр.Азия вы можете получить высокодетализированные автоматические прогнозы погоды по пунктам России, СНГ и мира в авиационном формате (включающие направление и скорость ветра, видимость, явления погоды, количество и форму облачности, нижнюю и верхнюю границу облачности).


Погода Пономарёво - сегодня

Время (UTC), дата Ветер
(°,м/с) 
Видим.   Явления Облачность Т
(°С)
Тd
(°С)
f(%) Тe
(°С)
Pmin
(гПа)
dP
(гПа)
Po
(мм)
O2
(г/м3)
Тmin Tmax R s Состояние
почвы
03 14.06.18 160 (Ю) 20000 м    3/3 1000 м 
[Cu med, cong]
+20.5 +13.2 63 +27  1003.4  -1  715  265           
06 14.06.18 220 (ЮЗ) 20000 м    4/4 1000 м 
[Cu med, cong]
+27.2 +13.8 44 +35  1000.7  -1.4  714  259           
12 14.06.18 тихо ()   20000 м  {гроза}  9/0 средняя, верхняя 
[Ac und|Ci]
+25.5 +13 46 +32  999.1  -0.7  712  260    +29.3       
15 14.06.18 тихо ()   20000 м    9/8 600 м кучево-дожд., верхняя 
[Cb cap|Ci fib]
+17.6 +15.4 87 +28  1001.8  1.4  713  267           
18 14.06.18 230 (ЮЗ) н/о    10/10 600 м кучево-дожд. 
[Cb cap]
+17.6 +10.3 62 +20  1006.8  4.6  717  269           
00 15.06.18 тихо ()   4000 м  ливневой дождь  10/10 600 м кучево-дожд. 
[Cb cap]
+11.4 +11.2 99 +15  1014.3  722  277  +11.4       
09 15.06.18 230 (ЮЗ) 20000 м    8/8 600 м кучево-дожд. 
[Cb cap]
+19.1 +8.6 51 +20  1013.1  -0.4  722  270           
12 15.06.18 350 (С) 20000 м  {ливн. осадки}  8/8 600 м кучево-дожд. 
[Cb cap]
+17.9 +11.1 64 +22  1013.3  722  271    +19.5  0.9     
15 15.06.18 тихо ()   20000 м    ясно 
+10.8 +10 95 +13  1015.1  0.5  722  278           
18 15.06.18 тихо ()   н/о    ясно 
+8.1 +7.7 97 +8  1015.9  0.3  722  281           
21 15.06.18 360 (С) 20000 м    ясно 
+7.8 +7.6 99 +9  1016.4  0.4  722  282           
03 16.06.18 280 (З) 20000 м    8/3 1000 м верхняя 
[Cu hum|Ci fib]
+16.3 +8.7 61 +18  1013.1  -0.8  721  273           
06 16.06.18 220 (ЮЗ) 20000 м    3/3 1000 м верхняя 
[Cu hum|Ci fib]
+23 +7.8 38 +23  1010.5  -1.4  720  266           
09 16.06.18 260 (З) 20000 м    8/3 1000 м верхняя 
[Cu hum|Ci fib]
+23.8 +8 36 +24  1009.1  -1.2  719  265           
12 16.06.18 тихо ()   20000 м    9/3 1000 м верхняя 
[Cu med, cong|Ci]
+21.6 +8.1 42 +22  1009.5  719  267    +24       
15 16.06.18 тихо ()   20000 м    9/0 средняя, верхняя 
[Ac trans|Ci fib]
+14.2 +11.6 84 +18  1011.5  0.8  720  273           
18 16.06.18 тихо ()   н/о    ясно 
+10 +9.4 96 +11  1014.1  1.5  721  279           
21 16.06.18 тихо ()   20000 м    ясно 
+8.2 +7.8 97 +8  1014.8  0.4  721  281           
03 17.06.18 250 (З) 20000 м    6/3 1000 м верхняя 
[Cu hum|Ci fib]
+18.9 +9.9 56 +22  1012.7  -0.9  721  270           
06 17.06.18 тихо ()   20000 м    6/3 1000 м верхняя 
[Cu med, cong|Ci fib]
+25.3 +9.5 37 +27  1010.9  -0.6  721  264           
09 17.06.18 240 (ЮЗ) 20000 м    4/3 1000 м верхняя 
[Cu hum|Ci fib]
+27 +10.3 35 +29  1009.3  -1.1  720  262           
12 17.06.18 тихо ()   20000 м    ясно 
+25.5 +9.3 36 +27  1008.5  -1.1  719  263    +27.3       
15 17.06.18 тихо ()   20000 м    ясно 
+16.5 +12.9 79 +23  1010.4  0.2  719  271           
18 17.06.18 тихо ()   н/о    ясно 
+11.6 +10.2 91 +14  1011.9  0.6  720  276           
21 17.06.18 170 (Ю) 20000 м    ясно 
+11.8 +10 89 +15  1011.3  -0.6  719  276           
Время (UTC), дата Ветер
(°,м/с) 
Видим.   Явления Облачность Т
(°С)
Тd
(°С)
f(%) Тe
(°С)
Pmin
(гПа)
dP
(гПа)
Po
(мм)
O2
(г/м3)
Тmin Tmax R s Состояние
почвы

Для получения пояснительной информации подведите курсор к названию столбца.

ПОГОДА Пономарёво - архив

Всё, что Вы хотите узнать о погоде Пономарёво - удобно и подробно!

Выберите нужную дату (начиная с 1 января 2015* года) и нажмите кнопку "Найти".
Будут отображены архивные сводки погоды по пункту Пономарёво, начиная с указанной даты.


Отображать данные в формате CSV (для использования в таблицах Excel)


Внимание! Наш архив погоды предназначен исключительно для личного некоммерческого использования в познавательных целях. Если Вам необходимы официальные справки о состоянии погоды (для производственных, юридических, коммерческих и т.п. целей), обращайтесь в органы Росгидромета.

*Примечание: данная дата относится к архиву по метеостанциям СССР (Россия, СНГ, Балтия).
Архив по метеостанциям Зарубежной Европы и Азии (кроме Китая) хранится 10 дней, по другим регионам земного шара (Китай, Африка, Америка, Австралия, Океания) - 1 день.

Пономарёво - район местоположения метеостанции


Название, широта, долгота, высота метеостанции:
Пономарёво 53.7°ш. 94.2°д. 445 м над ур. моря [Российская Федерация]

Дополнительная информация

В oтличие oт бoльшинства пoгoдных сайтoв мы публикуем пoдрoбную метеoинфoрмацию в детальнoм прoфессиoнальнoм фoрмате.

Характеристики температуры и влажнoсти вoздуха измеряются на высoте 2 м в тени вдали oт зданий и деревьев.
Скoрoсть ветра измеряется на высoте 10 м (на урoвне рoста челoвека скoрoсть ветра ниже в 1.5-2 раза). Если метеoстанция нахoдится в гoрoде или в лесу, тo скoрoсть ветра занижена на 2-4 м/с пo сравнению с oткрытым местoм. Скoрoсть ветра над акватoриями крупных рек и oзёр, а также на вершинах хoлмoв на 2-5 м/с выше, чем в oбычных услoвиях.
Атмoсфернoе давление в разных тoчках местнoсти мoжет значительнo oтличаться oт давления на метеoстанции, в зависимoсти oт услoвий рельефа (при пoдъёме на 10 м давление пoнижается примернo на 1 мм рт.ст.).